Weather Roundup
Issued by NWS Springfield, MO

Home | Current Version | Previous Version | Text Only | Print | Product List | Glossary On
Versions: 1 2 3 4 5 6 7 8 9 10 11 12 13 14 15 16 17 18 19 20 21 22 23 24 25 26 27 28 29 30 31 32 33 34 35 36 37 38 39 40 41 42 43 44 45 46 47 48 49 50
000
NZUS99 KSGF 081307
HRRSGF

HOURLY WEATHER
NATIONAL WEATHER SERVICE SPRINGFIELD MO
700 AM CST THU DEC 08 2016

......SGF CWA......

CITY           SKY/WX    TMP DP  RH WIND       PRES   REMARKS
SPRINGFIELD    CLEAR     18  10  71 W8        30.53R WCI   8
JOPLIN         CLOUDY    17  10  74 NW5       30.60R WCI  10
WEST PLAINS    CLOUDY    20  11  68 W7        30.48R WCI  11
ROLLA          CLEAR     17   9  70 W12       30.45R WCI   4
OSAGE BEACH    CLEAR     18  10  71 NW9       30.52R WCI   7
BRANSON        MOCLDY    19  10  68 W6        30.54R WCI  11

......SURROUNDING SGF CWA......

CITY           SKY/WX    TMP DP  RH WIND       PRES   REMARKS
CHANUTE        CLEAR     16   8  71 NW10      30.61R WCI   4
PARSONS        CLEAR     16   9  74 NW7       30.63R WCI   6
COFFEYVILLE    PTCLDY    18  10  71 NW6       30.64R WCI  10
EMPORIA        CLEAR     13   6  74 NW12      30.60R WCI  -1
GROVE OK       CLOUDY    23  14  68 CALM      30.63S
ROGERS AR      CLOUDY    18  11  74 NW6       30.57R WCI  10
SILOAM SPRINGS CLOUDY    19  10  68 N7        30.57R WCI  10
HARRISON AR    PTCLDY    20  12  71 W9        30.52R WCI   9
NEAR YELLVILLE PTCLDY    25  10  54 NW7       30.52R WCI  17

......KANSAS AND MISSOURI......

CITY           SKY/WX    TMP DP  RH WIND       PRES   REMARKS
KANSAS CTY INT CLEAR     14   5  67 NW12      30.54R WCI   0
DOWNTOWN KC    CLEAR     17   6  62 NW12G20   30.58R WCI   4
COLUMBIA       CLEAR     17   9  70 W10       30.48R WCI   5
SEDALIA        CLEAR     17   9  70 W10       30.53R WCI   5
ST JOSEPH      CLEAR     14   5  67 NW12      30.57R WCI   0
ST LOUIS       PTCLDY    22  10  60 W16       30.44R WCI   8
SPIRIT OF STL  CLEAR     20  11  68 W12       30.46R WCI   8
KIRKSVILLE     CLEAR     14   7  73 W14       30.45R WCI  -1
WICHITA        PTCLDY    16   6  65 N13       30.64R WCI   2
TOPEKA         CLEAR     15   5  64 W10       30.60R WCI   2
OLATHE         CLEAR     14   5  67 NW14G21   30.56R WCI  -1

......TENNESSEE......

CITY           SKY/WX    TMP DP  RH WIND       PRES   REMARKS
MEMPHIS        CLOUDY    36  26  67 N14G22    30.44R WCI  27
NASHVILLE      PTCLDY    34  20  56 NW8       30.37R WCI  27

......ARKANSAS.......

CITY           SKY/WX    TMP DP  RH WIND       PRES   REMARKS
FAYETTEVILLE   PTCLDY    19  13  77 N7        30.57R WCI  10
FT SMITH       PTCLDY    28  12  51 N14       30.61R WCI  17
LITTLE ROCK    CLOUDY    33  26  75 N13       30.51R WCI  24

......OKLAHOMA.......

CITY           SKY/WX    TMP DP  RH WIND       PRES   REMARKS
TULSA          MOCLDY    20  15  81 NW9       30.65R WCI   9
PONCA CITY     CLOUDY    16   9  74 NW6       30.67R WCI   7
MCALESTER      MOCLDY    27  14  58 N13       30.62R WCI  16
OKLAHOMA CITY  MOCLDY    22  15  75 N13       30.65R WCI  10

......IOWA............

CITY           SKY/WX    TMP DP  RH WIND       PRES   REMARKS
DES MOINES     PTCLDY    12   4  70 NW21G31   30.44R WCI  -7
QUAD CITIES    MOCLDY    16   6  65 W20G33    30.34R WCI  -1

......ILLINOIS........

CITY           SKY/WX    TMP DP  RH WIND       PRES   REMARKS
QUINCY         CLEAR     16   9  74 W17G23    30.41R WCI   0
CHICAGO        FLURRIES  19  11  70 W20G28    30.20R WCI   3



USA.gov is the U.S. government's official web portal to all federal, state and local government web resources and services.